Location: ????????
(60.5616°N, 46.8254°E)
Time: 18:19:39
(UTC+00:00)

Sich 1 - Pass Details

Date: 18 February 2020
Orbit: 595 x 625 km, 82.5° (Epoch: 28 March)

Event Time Altitude Azimuth Distance (km) Brightness Sun altitude
Rises 14:32:33 0° 147° (SSE) 2,848 6.3 -6.0°
Reaches altitude 10° 14:35:12 10° 131° (SE) 1,945 5.3 -6.3°
Maximum altitude 14:38:21 20° 84° (E) 1,400 4.3 -6.7°
Drops below altitude 10° 14:41:29 10° 37° (NE) 1,949 5.2 -7.1°
Sets 14:44:08 0° 21° (NNE) 2,855 6.2 -7.4°
